CW1631 Weather Reports


time (UTC)temp
F
wind
direction
speed
knots
gust
knots
rain 1hr
in
rain 24hr
in
rain mn
in
humidity
%
barometer
mb
20260505094354 57 291 0.9 0.9 0.00 0.00 0.00 67 1006.1
20260505093849 57 279 0.9 0.9 0.00 0.00 0.00 67 1006.2
20260505093347 57 253 0.0 0.9 0.00 0.00 0.00 67 1006.1
20260505092844 57 277 0.9 0.9 0.00 0.00 0.00 67 1006.0
20260505092342 57 246 0.9 0.9 0.00 0.00 0.00 67 1006.1
20260505091839 57 276 0.9 0.9 0.00 0.00 0.00 66 1006.2
20260505091337 57 260 0.0 0.0 0.00 0.00 0.00 65 1005.8
20260505090835 57 269 1.7 2.6 0.00 0.00 0.00 65 1005.9
20260505090333 57 314 0.9 0.9 0.00 0.00 0.00 65 1006.1
20260505085830 58 297 0.9 0.9 0.00 0.00 0.00 65 1005.9
20260505085328 58 273 0.9 0.9 0.00 0.00 0.00 65 1005.8
20260505084825 57 284 0.9 0.9 0.00 0.00 0.00 65 1006.0
20260505084324 57 312 0.9 1.7 0.00 0.00 0.00 65 1005.8
20260505083820 58 302 0.0 0.0 0.00 0.00 0.00 64 1005.8
20260505083318 59 303 0.9 0.9 0.00 0.00 0.00 62 1005.8
20260505082814 59 268 1.7 1.7 0.00 0.00 0.00 62 1005.9
20260505082311 59 300 0.0 0.9 0.00 0.00 0.00 62 1006.1
20260505081807 59 222 0.9 0.9 0.00 0.00 0.00 61 1006.1
20260505081304 60 215 0.9 0.9 0.00 0.00 0.00 61 1005.8
20260505080801 60 265 0.9 0.9 0.00 0.00 0.00 60 1006.1
20260505080256 60 233 2.6 4.3 0.00 0.00 0.00 59 1005.9
20260505075752 60 239 0.9 0.9 0.00 0.00 0.00 59 1005.9
20260505075249 60 247 0.9 0.9 0.00 0.00 0.00 60 1006.1
20260505074747 60 237 0.9 1.7 0.00 0.00 0.00 59 1006.0
20260505074244 60 267 0.9 0.9 0.00 0.00 0.00 59 1006.1
20260505073741 60 266 2.6 2.6 0.00 0.00 0.00 59 1005.9
20260505073239 60 307 0.9 0.9 0.00 0.00 0.00 58 1006.0
20260505072735 60 270 1.7 1.7 0.00 0.00 0.00 58 1006.2
20260505072232 60 241 2.6 2.6 0.00 0.00 0.00 59 1006.2
20260505071727 60 269 0.9 0.9 0.00 0.00 0.00 58 1006.2
20260505071225 59 279 0.9 1.7 0.00 0.00 0.00 59 1006.3
20260505070722 59 284 0.9 0.9 0.00 0.00 0.00 58 1006.3
20260505070218 60 295 0.9 0.9 0.00 0.00 0.00 57 1006.2
20260505065714 59 270 0.0 0.0 0.00 0.00 0.00 58 1006.1
20260505065211 60 281 0.9 0.9 0.00 0.00 0.00 58 1006.2
20260505064708 60 269 0.9 0.9 0.00 0.00 0.00 56 1006.1
20260505064206 61 260 0.9 0.9 0.00 0.00 0.00 55 1006.0
20260505063703 61 232 2.6 2.6 0.00 0.00 0.00 55 1006.0
20260505063159 61 233 2.6 2.6 0.00 0.00 0.00 55 1006.1
20260505062655 61 230 6.1 7.8 0.00 0.00 0.00 55 1006.2
20260505062154 61 252 4.3 5.2 0.00 0.00 0.00 54 1006.1
20260505061650 61 217 6.1 7.0 0.00 0.00 0.00 54 1006.2
20260505061148 61 230 3.5 4.3 0.00 0.00 0.00 54 1006.2
20260505060645 61 209 6.1 6.1 0.00 0.00 0.00 54 1006.2
20260505060142 61 217 3.5 4.3 0.00 0.00 0.00 55 1006.2
20260505055637 61 214 7.8 8.7 0.00 0.00 0.00 54 1006.3
20260505055134 61 224 3.5 4.3 0.00 0.00 0.00 54 1006.1
20260505054632 61 229 1.7 2.6 0.00 0.00 0.00 54 1006.1
20260505054130 61 221 2.6 2.6 0.00 0.00 0.00 54 1006.2
20260505053627 61 223 5.2 6.1 0.00 0.00 0.00 55 1006.2
20260505053123 61 245 3.5 4.3 0.00 0.00 0.00 54 1006.1
20260505052620 60 196 2.6 2.6 0.00 0.00 0.00 55 1006.3
20260505052118 61 249 0.9 0.9 0.00 0.00 0.00 54 1006.2
20260505051614 62 250 0.0 0.0 0.00 0.00 0.00 53 1006.3
20260505051112 62 201 5.2 5.2 0.00 0.00 0.00 52 1006.4
20260505050610 62 226 2.6 2.6 0.00 0.00 0.00 53 1006.5
20260505050108 62 225 4.3 5.2 0.00 0.00 0.00 53 1006.5
20260505041538 63 217 2.6 2.6 0.00 0.00 0.00 50 1006.3
20260505041035 64 231 2.6 2.6 0.00 0.00 0.00 50 1006.1
20260505040532 64 208 8.7 8.7 0.00 0.00 0.00 49 1006.1
20260505040030 64 216 3.5 5.2 0.00 0.00 0.00 49 1006.1
20260505035525 64 201 7.0 7.8 0.00 0.00 0.00 48 1006.3
20260505035022 64 196 7.8 7.8 0.00 0.00 0.00 48 1006.4
20260505034519 64 207 6.1 7.0 0.00 0.00 0.00 48 1006.0
20260505034016 65 221 5.2 6.1 0.00 0.00 0.00 48 1006.1
20260505033513 64 249 8.7 11.3 0.00 0.00 0.00 48 1006.2
20260505033011 64 211 6.1 7.8 0.00 0.00 0.00 48 1006.0
20260505032508 65 190 7.8 8.7 0.00 0.00 0.00 48 1006.1
20260505032004 65 204 9.6 12.2 0.00 0.00 0.00 47 1006.2
20260505031501 64 200 7.8 8.7 0.00 0.00 0.00 48 1005.9
20260505030958 65 216 7.0 7.8 0.00 0.00 0.00 47 1006.3
20260505030455 65 228 6.1 7.0 0.00 0.00 0.00 47 1006.1
20260505025950 65 199 7.8 11.3 0.00 0.00 0.00 46 1006.1
20260505025447 65 204 6.1 7.0 0.00 0.00 0.00 47 1006.1
20260505024946 65 187 9.6 9.6 0.00 0.00 0.00 46 1006.1
20260505024443 65 190 6.1 7.0 0.00 0.00 0.00 46 1006.3
20260505023940 66 211 4.3 5.2 0.00 0.00 0.00 45 1006.3
20260505023437 66 219 4.3 5.2 0.00 0.00 0.00 45 1006.3
20260505022934 65 204 7.0 7.8 0.00 0.00 0.00 45 1006.3
20260505022432 65 226 7.0 8.7 0.00 0.00 0.00 45 1006.3
20260505021929 66 192 5.2 7.0 0.00 0.00 0.00 44 1006.4
20260505021425 66 232 4.3 5.2 0.00 0.00 0.00 45 1006.4
20260505020921 66 215 6.1 7.0 0.00 0.00 0.00 44 1006.4
20260505020416 66 198 3.5 4.3 0.00 0.00 0.00 44 1006.4
20260505015913 66 229 2.6 4.3 0.00 0.00 0.00 45 1006.5
20260505015411 67 209 5.2 7.8 0.00 0.00 0.00 43 1006.1
20260505014908 66 198 8.7 9.6 0.00 0.00 0.00 43 1006.6
20260505014405 67 221 7.8 8.7 0.00 0.00 0.00 43 1006.3
20260505013902 67 213 9.6 11.3 0.00 0.00 0.00 43 1006.1
20260505013358 66 219 7.8 9.6 0.00 0.00 0.00 43 1006.1
20260505012857 67 215 4.3 5.2 0.00 0.00 0.00 44 1006.2
20260505012354 67 215 7.8 9.6 0.00 0.00 0.00 43 1006.0
20260505011850 67 234 7.8 8.7 0.00 0.00 0.00 43 1006.3
20260505011347 67 209 10.4 11.3 0.00 0.00 0.00 42 1006.4
20260505010843 67 238 7.0 7.8 0.00 0.00 0.00 43 1005.8
20260505010339 67 219 7.0 8.7 0.00 0.00 0.00 42 1006.0
20260505005836 67 215 4.3 5.2 0.00 0.00 0.00 43 1005.8
20260505005332 68 206 6.1 7.8 0.00 0.00 0.00 42 1005.9
20260505004830 68 224 4.3 7.0 0.00 0.00 0.00 42 1005.8
20260505004326 68 194 7.0 7.8 0.00 0.00 0.00 41 1005.7
20260505003824 68 214 6.1 7.0 0.00 0.00 0.00 41 1005.7
20260505003321 68 200 3.5 5.2 0.00 0.00 0.00 41 1005.5
20260505002817 68 207 4.3 6.1 0.00 0.00 0.00 41 1005.4
20260505002314 68 215 7.8 9.6 0.00 0.00 0.00 40 1005.7
20260505001812 69 214 6.1 8.7 0.00 0.00 0.00 40 1005.7
20260505001309 69 200 6.1 7.0 0.00 0.00 0.00 40 1005.6
20260505000806 69 187 6.1 9.6 0.00 0.00 0.00 40 1005.7
20260505000304 69 200 7.8 8.7 0.00 0.00 0.00 39 1005.6
20260504235800 69 217 5.2 6.1 0.00 0.00 0.00 39 1005.6
20260504235256 69 213 6.1 7.0 0.00 0.00 0.00 39 1005.2
20260504234754 70 219 7.0 7.8 0.00 0.00 0.00 40 1005.4
20260504234251 70 212 8.7 11.3 0.00 0.00 0.00 38 1005.2
20260504233747 70 218 4.3 6.1 0.00 0.00 0.00 39 1005.0
20260504233243 70 207 5.2 6.1 0.00 0.00 0.00 39 1004.9
20260504232740 70 212 8.7 9.6 0.00 0.00 0.00 38 1005.0
20260504232237 70 225 6.1 7.0 0.00 0.00 0.00 39 1005.0
20260504231734 70 224 6.1 8.7 0.00 0.00 0.00 39 1005.1
20260504231231 70 218 7.0 9.6 0.00 0.00 0.00 39 1005.0
20260504230726 71 225 7.8 8.7 0.00 0.00 0.00 38 1005.0
20260504230225 71 214 7.8 8.7 0.00 0.00 0.00 37 1005.1
20260504225724 71 228 10.4 12.2 0.00 0.00 0.00 38 1005.1
20260504225220 71 218 9.6 12.2 0.00 0.00 0.00 37 1005.2
20260504224717 71 231 7.0 8.7 0.00 0.00 0.00 37 1005.0
20260504224214 71 212 10.4 12.2 0.00 0.00 0.00 38 1005.0
20260504223710 71 197 7.8 8.7 0.00 0.00 0.00 39 1005.1
20260504223206 71 246 7.8 12.2 0.00 0.00 0.00 39 1005.0
20260504222703 71 238 5.2 7.0 0.00 0.00 0.00 38 1005.0
20260504222200 71 224 5.2 6.1 0.00 0.00 0.00 38 1005.0
20260504221657 71 218 6.1 7.0 0.00 0.00 0.00 36 1004.9
20260504221155 71 242 7.0 8.7 0.00 0.00 0.00 38 1005.1
20260504220650 71 189 8.7 11.3 0.00 0.00 0.00 38 1004.9
20260504220149 71 258 6.1 7.0 0.00 0.00 0.00 39 1005.1
20260504215644 71 211 8.7 9.6 0.00 0.00 0.00 38 1004.8
20260504215142 72 208 9.6 9.6 0.00 0.00 0.00 37 1004.9
20260504214637 72 230 7.8 8.7 0.00 0.00 0.00 37 1005.1
20260504214134 71 220 6.1 7.0 0.00 0.00 0.00 38 1005.0
20260504213631 71 221 7.8 9.6 0.00 0.00 0.00 38 1005.0
20260504213128 72 230 8.7 11.3 0.00 0.00 0.00 37 1005.0
20260504212624 72 214 5.2 7.8 0.00 0.00 0.00 36 1005.1
20260504212121 72 214 10.4 13.0 0.00 0.00 0.00 36 1005.4
20260504211619 72 206 9.6 9.6 0.00 0.00 0.00 36 1005.2
20260504211115 72 211 5.2 6.1 0.00 0.00 0.00 35 1005.1
20260504210613 72 215 8.7 11.3 0.00 0.00 0.00 36 1005.5
20260504210109 73 235 5.2 7.8 0.00 0.00 0.00 36 1005.2
20260504205606 73 217 5.2 6.1 0.00 0.00 0.00 36 1005.4
20260504205104 72 264 3.5 5.2 0.00 0.00 0.00 35 1005.5
20260504204602 72 227 4.3 8.7 0.00 0.00 0.00 35 1005.5
20260504204101 73 210 13.9 15.6 0.00 0.00 0.00 37 1005.7
20260504203559 72 198 4.3 5.2 0.00 0.00 0.00 37 1005.4
20260504203056 72 214 12.2 18.2 0.00 0.00 0.00 38 1005.6
20260504202551 71 272 5.2 7.8 0.00 0.00 0.00 37 1005.6
20260504202048 71 206 9.6 9.6 0.00 0.00 0.00 37 1005.5
20260504201545 71 215 9.6 13.9 0.00 0.00 0.00 39 1005.8
20260504201043 71 223 9.6 9.6 0.00 0.00 0.00 37 1006.0
20260504200539 71 212 7.8 9.6 0.00 0.00 0.00 39 1005.8
20260504200036 70 230 6.1 6.1 0.00 0.00 0.00 39 1006.0
20260504195532 70 203 6.1 7.0 0.00 0.00 0.00 38 1006.1
20260504195029 71 236 1.7 1.7 0.00 0.00 0.00 37 1006.1
20260504194525 71 216 11.3 14.8 0.00 0.00 0.00 38 1006.3
20260504194021 71 217 13.0 15.6 0.00 0.00 0.00 36 1006.3
20260504193518 70 250 6.1 8.7 0.00 0.00 0.00 37 1006.2
20260504193017 70 218 0.9 1.7 0.00 0.00 0.00 38 1006.4
20260504192514 70 224 13.9 17.4 0.00 0.00 0.00 40 1006.2
20260504192012 70 199 9.6 9.6 0.00 0.00 0.00 39 1006.4
20260504191510 71 278 4.3 6.1 0.00 0.00 0.00 37 1006.6
20260504191006 71 224 13.0 19.1 0.00 0.00 0.00 38 1006.4
20260504190502 71 144 2.6 2.6 0.00 0.00 0.00 38 1006.6
20260504185958 71 255 2.6 2.6 0.00 0.00 0.00 39 1006.5
20260504185455 70 283 2.6 4.3 0.00 0.00 0.00 38 1006.7
20260504184952 70 222 13.0 15.6 0.00 0.00 0.00 38 1006.6
20260504184447 70 227 3.5 7.8 0.00 0.00 0.00 40 1006.6
20260504183943 70 230 10.4 13.0 0.00 0.00 0.00 39 1006.9
20260504183440 69 235 6.1 9.6 0.00 0.00 0.00 41 1006.7
20260504182938 68 221 6.1 7.8 0.00 0.00 0.00 41 1006.8
20260504182435 68 265 4.3 5.2 0.00 0.00 0.00 42 1006.8
20260504181932 68 205 9.6 11.3 0.00 0.00 0.00 43 1006.9
20260504181429 69 230 10.4 13.9 0.00 0.00 0.00 41 1007.0
20260504180928 68 231 4.3 7.8 0.00 0.00 0.00 39 1007.0
20260504180426 70 248 7.0 8.7 0.00 0.00 0.00 41 1007.1
20260504175924 69 228 5.2 9.6 0.00 0.00 0.00 39 1007.1
20260504175421 68 257 3.5 5.2 0.00 0.00 0.00 41 1006.9
20260504174918 69 277 10.4 13.0 0.00 0.00 0.00 44 1007.2
20260504174416 68 163 12.2 13.0 0.00 0.00 0.00 41 1007.4
20260504173913 68 239 13.0 15.6 0.00 0.00 0.00 40 1007.2
20260504173409 68 224 7.8 8.7 0.00 0.00 0.00 43 1007.2
20260504172907 67 227 16.5 18.2 0.00 0.00 0.00 43 1007.1
20260504172403 67 219 13.9 18.2 0.00 0.00 0.00 42 1007.3
20260504171859 68 230 7.0 12.2 0.00 0.00 0.00 45 1007.5
20260504171356 67 231 7.0 11.3 0.00 0.00 0.00 43 1007.3
20260504170854 67 218 17.4 20.0 0.00 0.00 0.00 43 1007.5
20260504170350 66 213 10.4 14.8 0.00 0.00 0.00 41 1007.6
20260504160309 64 203 7.8 8.7 0.00 0.00 0.00 45 1008.1
20260504150734 61 220 11.3 14.8 0.00 0.00 0.00 46 1008.7
20260504150230 61 277 12.2 14.8 0.00 0.00 0.00 45 1008.7
20260504141200 57 242 6.1 9.6 0.00 0.00 0.00 49 1009.4
20260504140657 58 206 15.6 18.2 0.00 0.00 0.00 46 1009.4
20260504140152 57 221 11.3 12.2 0.00 0.00 0.00 46 1009.6
20260504130620 52 217 7.8 8.7 0.00 0.00 0.00 51 1010.0
20260504130117 52 198 9.6 9.6 0.00 0.00 0.00 50 1009.9
20260504110509 46 249 1.7 1.7 0.00 0.00 0.00 66 1010.3
20260504100431 43 236 1.7 1.7 0.00 0.00 0.00 65 1010.2